TimeEST,TemperatureF,Dew PointF,Humidity,Sea Level PressureIn,VisibilityMPH,Wind Direction,Wind SpeedMPH,Gust SpeedMPH,PrecipitationIn,Events,Conditions,WindDirDegrees,DateUTC
12:15 AM,-4.0,-14.3,61,29.96,10.0,SW,5.8,-,N/A,,Overcast,230,2013-01-23 05:15:00
12:35 AM,-4.2,-14.8,60,29.96,10.0,SW,5.8,-,N/A,,Overcast,230,2013-01-23 05:35:00
12:55 AM,-4.7,-14.8,62,29.96,10.0,SW,5.8,-,N/A,,Overcast,230,2013-01-23 05:55:00
1:15 AM,-4.7,-14.8,62,29.96,10.0,SW,6.9,-,N/A,,Overcast,230,2013-01-23 06:15:00
1:35 AM,-4.9,-15.3,61,29.96,7.0,SW,10.4,-,N/A,,Overcast,230,2013-01-23 06:35:00
1:55 AM,-5.1,-16.4,58,29.97,10.0,SW,6.9,-,N/A,,Overcast,230,2013-01-23 06:55:00
2:15 AM,-5.8,-18.4,55,29.98,10.0,SW,10.4,-,N/A,,Scattered Clouds,230,2013-01-23 07:15:00
2:35 AM,-6.2,-19.5,53,29.98,10.0,SW,11.5,-,N/A,,Clear,230,2013-01-23 07:35:00
2:55 AM,-7.1,-20.2,53,29.98,10.0,SW,4.6,-,N/A,,Clear,230,2013-01-23 07:55:00
3:15 AM,-7.4,-19.5,56,29.97,10.0,SW,5.8,-,N/A,,Clear,230,2013-01-23 08:15:00
3:35 AM,-7.6,-19.3,57,29.97,10.0,SW,9.2,-,N/A,,Clear,230,2013-01-23 08:35:00
3:55 AM,-7.6,-18.8,58,29.98,10.0,SW,6.9,-,N/A,,Mostly Cloudy,230,2013-01-23 08:55:00
4:15 AM,-8.1,-19.3,58,29.98,10.0,SW,6.9,-,N/A,,Mostly Cloudy,230,2013-01-23 09:15:00
4:35 AM,-8.3,-19.1,59,29.98,10.0,SW,6.9,-,N/A,,Mostly Cloudy,230,2013-01-23 09:35:00
4:55 AM,-8.5,-19.3,59,29.98,10.0,SW,6.9,-,N/A,,Overcast,230,2013-01-23 09:55:00
5:15 AM,-9.4,-19.3,62,29.98,10.0,SW,8.1,-,N/A,,Scattered Clouds,230,2013-01-23 10:15:00
5:35 AM,-9.9,-20.2,61,29.99,10.0,SW,9.2,-,N/A,,Clear,230,2013-01-23 10:35:00
5:55 AM,-10.8,-21.6,59,30.00,10.0,SW,4.6,-,N/A,,Clear,230,2013-01-23 10:55:00
6:15 AM,-11.2,-22.7,57,30.01,10.0,SW,9.2,-,N/A,,Clear,230,2013-01-23 11:15:00
6:35 AM,-11.2,-23.8,54,30.02,10.0,SW,9.2,-,N/A,,Clear,230,2013-01-23 11:35:00
6:55 AM,-12.1,-23.8,56,30.02,10.0,SW,9.2,-,N/A,,Clear,230,2013-01-23 11:55:00
7:15 AM,-12.3,-23.8,57,30.02,10.0,SW,15.0,18.4,N/A,,Clear,230,2013-01-23 12:15:00
7:35 AM,-12.5,-24.5,55,30.02,10.0,SW,11.5,19.6,N/A,,Clear,230,2013-01-23 12:35:00
7:55 AM,-12.5,-24.3,56,30.02,10.0,SW,10.4,-,N/A,,Clear,230,2013-01-23 12:55:00
8:15 AM,-12.3,-24.5,55,30.03,10.0,SW,8.1,-,N/A,,Clear,230,2013-01-23 13:15:00
8:35 AM,-11.7,-24.9,52,30.04,10.0,SW,8.1,16.1,N/A,,Clear,230,2013-01-23 13:35:00
8:55 AM,-11.4,-25.6,49,30.04,10.0,SW,8.1,-,N/A,,Clear,230,2013-01-23 13:55:00
9:15 AM,-11.0,-26.0,48,30.05,10.0,SW,9.2,17.3,N/A,,Clear,230,2013-01-23 14:15:00
9:35 AM,-10.5,-26.0,47,30.05,10.0,SW,12.7,16.1,N/A,,Clear,230,2013-01-23 14:35:00
9:55 AM,-9.9,-25.6,46,30.05,10.0,SW,11.5,18.4,N/A,,Clear,230,2013-01-23 14:55:00
10:15 AM,-9.4,-25.8,45,30.05,10.0,SW,12.7,-,N/A,,Clear,230,2013-01-23 15:15:00
10:35 AM,-8.5,-26.0,42,30.05,10.0,SW,9.2,-,N/A,,Clear,230,2013-01-23 15:35:00
10:55 AM,-8.1,-26.3,41,30.05,10.0,SW,12.7,18.4,N/A,,Clear,230,2013-01-23 15:55:00
11:15 AM,-6.9,-25.6,40,30.04,10.0,SW,13.8,18.4,N/A,,Clear,230,2013-01-23 16:15:00
11:35 AM,-7.1,-25.1,41,30.04,10.0,SW,13.8,17.3,N/A,,Clear,230,2013-01-23 16:35:00
11:55 AM,-6.3,-25.1,40,30.03,10.0,SW,15.0,18.4,N/A,,Clear,230,2013-01-23 16:55:00
12:15 PM,-6.5,-24.3,42,30.02,10.0,SW,9.2,17.3,N/A,,Clear,230,2013-01-23 17:15:00
12:35 PM,-5.1,-24.2,40,30.01,10.0,SW,11.5,16.1,N/A,,Clear,230,2013-01-23 17:35:00
12:55 PM,-4.9,-24.0,40,30.01,10.0,SW,9.2,17.3,N/A,,Clear,230,2013-01-23 17:55:00
1:15 PM,-4.5,-24.2,39,30.01,10.0,SW,9.2,12.7,N/A,,Clear,230,2013-01-23 18:15:00
1:35 PM,-4.2,-23.6,39,30.01,10.0,SW,11.5,-,N/A,,Clear,230,2013-01-23 18:35:00
1:55 PM,-4.0,-23.4,39,30.01,10.0,SW,11.5,18.4,N/A,,Clear,230,2013-01-23 18:55:00
2:15 PM,-4.2,-24.0,38,30.01,10.0,SW,11.5,18.4,N/A,,Clear,230,2013-01-23 19:15:00
2:35 PM,-4.0,-24.2,38,30.02,10.0,SW,10.4,-,N/A,,Clear,230,2013-01-23 19:35:00
2:55 PM,-3.8,-24.9,36,30.02,10.0,SW,10.4,-,N/A,,Clear,230,2013-01-23 19:55:00
3:15 PM,-3.8,-25.8,34,30.02,10.0,SW,11.5,17.3,N/A,,Clear,230,2013-01-23 20:15:00
3:35 PM,-4.0,-25.6,35,30.03,10.0,SW,6.9,-,N/A,,Clear,230,2013-01-23 20:35:00
3:55 PM,-4.4,-25.4,36,30.03,10.0,SW,8.1,-,N/A,,Clear,230,2013-01-23 20:55:00
4:15 PM,-4.9,-25.8,36,30.03,10.0,SW,8.1,-,N/A,,Clear,230,2013-01-23 21:15:00
4:35 PM,-5.3,-25.8,37,30.03,10.0,SW,5.8,-,N/A,,Clear,230,2013-01-23 21:35:00
4:55 PM,-6.2,-25.2,39,30.03,10.0,SW,9.2,-,N/A,,Clear,230,2013-01-23 21:55:00
5:15 PM,-6.5,-24.7,41,30.03,10.0,SW,9.2,-,N/A,,Clear,230,2013-01-23 22:15:00
5:35 PM,-7.4,-24.7,43,30.03,10.0,Calm,Calm,-,N/A,,Clear,0,2013-01-23 22:35:00
5:55 PM,-8.1,-24.7,44,30.04,10.0,Calm,Calm,-,N/A,,Clear,0,2013-01-23 22:55:00
6:15 PM,-7.8,-24.7,44,30.04,10.0,SW,3.5,-,N/A,,Clear,230,2013-01-23 23:15:00
6:35 PM,-7.8,-24.7,44,30.04,10.0,Calm,Calm,-,N/A,,Clear,0,2013-01-23 23:35:00
6:55 PM,-8.1,-24.5,45,30.04,10.0,Calm,Calm,-,N/A,,Clear,0,2013-01-23 23:55:00
7:15 PM,-8.7,-24.9,45,30.05,10.0,SW,3.5,-,N/A,,Clear,230,2013-01-24 00:15:00
7:35 PM,-8.7,-24.5,46,30.05,10.0,Calm,Calm,-,N/A,,Clear,0,2013-01-24 00:35:00
7:55 PM,-9.6,-25.1,47,30.05,10.0,Calm,Calm,-,N/A,,Clear,0,2013-01-24 00:55:00
8:15 PM,-9.9,-24.7,48,30.04,10.0,Calm,Calm,-,N/A,,Clear,0,2013-01-24 01:15:00
8:35 PM,-11.2,-24.3,52,30.04,10.0,Calm,Calm,-,N/A,,Clear,0,2013-01-24 01:35:00
8:55 PM,-10.7,-24.2,51,30.04,10.0,Calm,Calm,-,N/A,,Clear,0,2013-01-24 01:55:00
9:15 PM,-10.1,-24.7,49,30.04,10.0,SW,4.6,-,N/A,,Clear,230,2013-01-24 02:15:00
9:35 PM,-12.1,-24.7,54,30.04,10.0,Calm,Calm,-,N/A,,Clear,0,2013-01-24 02:35:00
9:55 PM,-11.4,-24.7,52,30.03,10.0,SW,5.8,-,N/A,,Clear,230,2013-01-24 02:55:00
10:15 PM,-12.1,-24.5,54,30.04,10.0,SW,3.5,-,N/A,,Clear,230,2013-01-24 03:15:00
10:35 PM,-12.1,-25.4,52,30.04,10.0,SW,3.5,-,N/A,,Clear,230,2013-01-24 03:35:00
10:55 PM,-13.2,-24.0,59,30.04,10.0,SW,3.5,-,N/A,,Clear,230,2013-01-24 03:55:00
11:15 PM,-11.4,-24.3,53,30.04,10.0,Calm,Calm,-,N/A,,Clear,0,2013-01-24 04:15:00
11:35 PM,-12.3,-24.5,55,30.05,10.0,SW,3.5,-,N/A,,Clear,230,2013-01-24 04:35:00
11:55 PM,-13.5,-24.7,57,30.04,10.0,SW,3.5,-,N/A,,Clear,230,2013-01-24 04:55:00